Snowfall_Accumulation
0.0 0.0 0.0 0.0 0.0 0.0 0.0 0.0 11.6 0.0 0.0 5.6 2.9 1.4 0.2 0.0 0.0 0.0 0.0 0.0 0.0 0.3 0.8 1.4 2.3 4.4 1.1 0.0 0.5 1.4 3.5 3.6 0.9 0.5 0.0 0.0 0.0 1.4 1.0 5.0 2.3 0.7 1.4 0.2
0.0 0.0 0.0 0.0 0.0 0.0 0.0 3.6 2.2 0.0 0.0 5.5 2.2 0.3 0.1 0.0 0.0 0.0 0.1 0.1 0.6 0.4 0.2 0.9 0.5 0.5 0.0 0.1 0.5 2.7 3.3 2.8 0.6 1.0 1.4 0.0 0.4 0.0 0.0 0.7 1.8 1.5 1.9 0.0
0.0 0.0 0.0 0.0 0.0 0.0 0.0 3.2 11.4 0.0 0.0 1.3 2.5 1.9 1.9 0.6 0.0 0.0 0.2 0.0 0.5 0.0 0.0 0.3 0.1 0.1 0.0 0.0 0.1 0.0 0.0 4.8 5.0 5.0 3.1 3.1 2.7 0.5 0.0 3.1 4.7 1.4 0.5 0.7
0.0 0.0 0.0 0.0 0.0 0.0 0.0 7.4 8.2 0.1 7.7 6.0 1.7 0.9 1.8 1.2 0.9 0.0 0.3 0.0 0.1 0.8 0.0 0.0 0.0 0.0 0.0 0.0 0.0 0.0 0.2 3.1 3.3 0.7 0.0 0.1 1.0 1.5 2.7 4.7 2.2 3.3 1.4 0.5
0.0 0.0 0.0 0.0 0.0 0.0 0.0 21.8 3.3 0.4 1.0 1.0 2.0 2.5 1.5 1.1 0.3 1.1 0.6 0.1 0.0 0.0 0.0 0.2 0.0 0.0 0.0 0.0 0.0 0.0 0.0 0.9 0.8 0.3 0.3 0.0 0.1 1.6 3.2 3.9 1.8 0.2 0.0 0.3
0.0 0.0 0.0 0.0 0.0 0.0 0.0 0.0 0.0 3.3 1.5 1.0 2.0 1.2 0.3 0.5 0.6 0.0 0.1 0.0 0.0 0.1 0.0 0.0 0.0 0.0 0.0 0.0 0.0 0.0 2.3 1.8 0.6 0.3 0.0 0.0 4.0 4.3 4.2 10.9 3.7 3.0 4.9 3.9
0.0 0.0 0.0 0.0 0.0 0.0 0.0 0.0 0.0 5.1 4.9 1.3 0.6 0.4 0.6 1.3 1.3 1.3 0.1 0.0 0.3 0.0 0.0 0.0 0.0 0.0 0.0 0.0 0.0 0.0 0.1 3.1 2.5 0.1 0.1 4.0 3.8 0.1 0.0 1.6 4.7 4.3 2.6 4.3
0.0 0.0 0.0 0.0 0.0 0.0 0.0 0.0 0.0 3.4 3.1 0.9 0.3 0.1 0.5 0.6 0.1 0.5 0.4 0.1 0.0 0.0 0.0 2.9 2.2 0.3 0.4 0.0 0.0 0.0 0.0 2.4 3.9 2.8 1.4 0.8 1.7 0.0 0.0 0.2 1.6 0.8 2.7 3.6
0.0 0.0 0.0 0.0 0.0 0.0 0.0 0.0 0.0 0.5 5.1 0.6 0.0 0.2 0.1 0.7 1.0 0.6 0.1 0.0 0.0 0.0 2.5 4.2 3.7 3.8 1.7 0.3 0.0 0.0 0.0 0.3 2.5 3.1 3.9 3.1 1.1 0.0 0.0 0.0 4.6 0.5 2.3 2.1
0.0 0.0 0.0 0.0 0.0 0.0 0.0 0.0 0.0 0.4 7.8 0.5 0.1 0.2 0.1 0.0 0.4 2.1 0.9 0.0 0.0 0.0 4.3 3.6 2.8 2.3 2.1 3.6 2.8 1.8 3.1 1.7 2.9 1.5 3.3 2.1 0.4 0.0 0.0 3.1 4.7 1.1 5.8 3.5
0.0 0.0 0.0 0.0 0.0 0.0 0.0 0.0 0.0 0.0 2.3 0.1 0.0 0.0 0.1 0.1 0.2 1.5 0.0 3.2 1.5 3.6 4.0 3.7 3.0 1.6 1.4 1.4 3.8 2.3 2.5 3.3 3.2 4.1 3.9 3.0 0.2 0.0 0.7 1.0 0.2 1.1 7.5 1.8
0.0 0.0 0.0 0.0 0.0 0.0 0.0 0.0 0.0 0.0 1.1 0.0 0.0 0.0 0.0 0.0 0.0 0.0 0.1 2.1 2.6 1.2 2.3 2.8 1.6 2.0 2.3 1.3 3.6 5.1 5.0 3.1 3.9 3.4 4.1 1.6 0.1 0.4 0.4 0.4 0.5 2.9 7.5 1.0
0.0 0.0 0.0 0.0 0.0 0.0 0.0 0.0 0.0 0.0 4.6 0.1 0.0 0.0 0.0 0.0 0.0 0.0 2.4 0.0 0.0 5.3 3.5 3.4 2.7 3.8 2.0 1.8 3.1 6.5 5.1 2.2 4.4 1.0 1.0 0.5 0.0 0.0 0.0 0.2 0.2 0.4 4.5 0.5
0.0 0.0 0.0 0.0 0.0 0.0 0.0 0.0 0.0 0.0 2.3 14.0 1.7 0.0 0.0 0.0 0.0 0.0 0.0 0.0 0.0 0.0 0.0 4.0 4.0 1.9 0.1 2.0 1.7 3.8 9.1 7.5 6.0 3.0 0.2 0.9 0.3 0.3 0.2 0.2 0.2 0.5 0.3 0.4
0.0 0.0 0.0 0.0 0.0 0.0 0.0 0.0 0.0 0.0 0.1 7.2 0.5 0.0 0.0 0.0 0.0 0.0 0.0 0.0 0.0 0.1 3.7 4.1 2.0 0.0 0.3 0.1 0.8 5.8 3.1 11.4 10.4 8.7 2.3 3.5 0.7 0.7 0.4 0.2 0.7 1.7 1.2 1.4
0.0 0.0 0.0 0.0 0.0 0.0 0.0 15.2 0.0 0.0 0.0 5.8 6.5 0.0 0.0 0.0 0.0 0.0 0.0 0.0 0.0 0.2 0.7 2.1 0.1 0.0 0.7 2.2 1.9 1.0 1.7 6.5 8.5 11.1 4.8 3.6 3.7 2.2 0.9 2.1 3.4 4.4 2.7 3.2
0.0 0.0 0.0 0.0 0.0 0.0 3.1 7.3 0.0 0.0 0.0 14.9 11.1 3.3 0.0 0.0 0.0 0.0 0.0 0.0 0.1 0.5 0.7 1.1 0.3 0.2 1.3 1.9 0.6 0.0 0.0 2.1 4.7 6.7 8.8 8.4 9.2 10.8 7.0 2.5 2.8 3.3 1.5 1.1
0.0 0.0 0.0 0.0 0.0 0.0 0.5 0.0 0.0 0.0 0.0 5.0 12.3 5.2 3.5 0.0 0.4 1.8 0.0 0.3 0.7 1.0 0.9 0.3 0.3 0.5 0.8 2.9 0.0 0.0 0.1 0.3 0.8 0.8 1.3 3.8 4.9 4.6 4.3 1.8 0.6 0.1 0.0 0.5
0.0 0.0 0.0 0.0 0.0 21.2 0.0 0.0 0.0 0.0 2.5 9.4 5.3 6.4 10.4 0.0 2.7 0.3 0.5 0.1 7.2 0.0 3.5 1.1 0.8 1.5 3.1 0.7 0.0 0.0 0.1 0.1 0.0 0.0 0.0 0.0 0.0 0.0 0.0 0.3 0.1 1.0 1.1 0.1
0.0 0.0 28.4 41.4 2.3 0.0 0.0 0.0 5.1 7.0 5.8 3.1 3.4 0.7 4.6 0.9 0.8 6.6 8.5 4.0 5.3 6.9 1.0 0.2 2.1 2.6 1.0 0.3 0.3 0.2 0.0 0.0 0.0 0.0 0.0 0.0 0.0 0.0 0.1 0.0 1.0 0.2 0.1 0.1
0.0 19.4 17.5 0.0 0.0 0.0 6.9 21.1 14.2 10.0 6.0 0.9 0.1 0.0 1.2 0.0 4.1 6.9 3.3 11.3 5.5 7.8 3.0 1.6 2.8 3.2 2.3 0.8 0.3 0.2 0.0 0.0 0.0 0.0 0.0 0.0 0.0 2.2 1.7 0.7 0.2 0.0 0.0 0.5
0.0 0.0 0.0 0.0 3.1 15.0 17.9 16.7 10.4 2.9 0.7 0.3 0.2 3.8 5.8 0.4 0.0 9.7 17.5 9.0 9.5 4.7 0.8 7.0 6.2 4.4 1.2 0.3 0.3 0.1 0.0 0.0 0.0 0.0 0.0 0.0 0.0 0.0 0.1 0.6 0.6 0.9 3.8 4.3
0.0 4.2 8.9 14.7 17.2 21.8 14.9 7.2 4.1 2.2 0.8 0.4 0.2 4.5 0.0 6.1 0.4 9.8 11.8 16.0 9.6 3.1 15.0 10.4 5.3 2.4 2.1 1.3 0.1 0.0 0.3 0.0 0.0 0.0 0.0 0.0 0.0 0.9 1.5 1.8 3.9 3.5 3.8 4.4
3.6 14.0 20.7 17.7 11.9 9.9 6.5 2.7 0.9 0.9 0.2 0.5 0.0 0.4 2.4 1.0 6.1 9.3 12.7 12.9 10.1 12.4 9.6 6.3 6.9 5.6 3.1 1.9 1.2 2.1 1.4 0.5 0.5 0.6 0.6 2.1 1.6 2.4 3.5 3.9 3.8 2.6 3.5 5.3
10.2 6.2 8.1 7.8 7.5 4.7 3.1 2.5 1.4 0.8 0.1 0.5 0.7 2.6 2.4 6.1 11.3 6.7 6.5 10.6 11.2 8.3 7.7 7.6 6.5 4.2 2.6 3.7 3.5 3.6 4.4 5.6 5.4 7.0 8.0 7.7 6.0 4.0 5.9 6.0 5.1 3.2 3.9 4.5
4.5 5.4 5.5 4.8 3.6 4.6 4.6 3.8 2.8 1.2 1.9 1.8 4.1 8.1 8.1 9.2 8.0 6.3 7.3 7.5 9.9 7.9 5.1 3.8 2.7 3.1 3.6 4.0 5.1 6.0 6.3 6.3 6.7 7.3 7.4 8.5 8.8 8.1 8.0 8.2 7.6 7.4 6.2 6.4
2.9 5.7 4.5 4.6 4.3 4.6 4.5 4.7 4.8 4.5 6.4 8.1 8.1 8.8 7.2 5.8 2.9 3.1 3.7 5.8 6.1 4.8 5.1 4.4 4.6 5.0 5.9 6.0 5.7 5.6 5.7 6.3 6.5 6.7 6.4 6.2 6.2 5.6 5.0 6.4 8.2 7.2 6.9 6.2